Location: Azul
(36.7830°S, 59.8500°W)
Time: 23:42:13
(UTC-03:00)

NOAA 15 - Pass Details

Date: 25 October 2021
Orbit: 797 x 813 km, 98.7° (Epoch: 30 November)

Event Time Altitude Azimuth Distance (km) Brightness Sun altitude
Rises 20:57:13 0° 170° (S) 3,341 8.1 -17.6°
Reaches altitude 10° 20:59:34 10° 172° (S) 2,405 7.4 -18.0°
Maximum altitude 21:04:51 69° 254° (WSW) 867 4.9 -18.9°
Drops below altitude 10° 21:10:06 10° 336° (NNW) 2,384 6.9 -19.8°
Sets 21:12:26 0° 338° (NNW) 3,310 7.7 -20.1°
